{"data":{"norad_id":59567,"intl_designator":"2024-076D","name":"STARLINK-31689","alt_names":[],"object_type":"PAYLOAD","status":"ACTIVE","operator":null,"country":"US","launch_date":"2024-04-23","launch_site_code":"AFETR","launch_vehicle":null,"mission":null,"orbit_class":"UNKNOWN","rcs_meters":null,"size_class":null,"mass_kg":null,"dimensions":null,"purposes":["comms"],"wikipedia_slug":null,"has_3d_model":false,"image_url":null,"decayed_at":null,"tle_current":{"epoch":"2026-05-25T03:26:12.380640Z","epoch_age_seconds":59345,"freshness":"FRESH","line1":"1 59567U 24076D   26145.14319885  .00000473  00000+0  26716-4 0  9997","line2":"2 59567  43.0022 293.9115 0001639 246.5969 113.4710 15.27574434118239","mean_motion":15.27574434,"eccentricity":0.0001639,"inclination_deg":43.0022,"raan_deg":293.9115,"arg_perigee_deg":246.5969,"mean_anomaly_deg":113.471,"bstar":2.6716e-5,"rev_number":11823,"period_min":94.267092191987,"perigee_km":481.94121156381,"apogee_km":484.19031382942,"semimajor_km":6861.2027626966,"source":"CELESTRAK","updated_at":"2026-05-25T13:38:18.984887Z"}}}